This is the latest recevied weather packets stored in our database for station/object NQ9F. If no packets are shown the sender has not sent any weather packets the latest 10 day(s).
| Time | Temp. | Humidity | Pressure | Rain* | Wind** | Luminosity | Snow |
|---|---|---|---|---|---|---|---|
| 1778020250 | 24.44° C | 65% | 1005.6 hPa | 0 mm | - | 96 W/m² | - |
| 1778019946 | 24.44° C | 64% | 1005.4 hPa | 0 mm | - | 139 W/m² | - |
| 1778019643 | 24.44° C | 64% | 1005.2 hPa | 0 mm | - | 123 W/m² | - |
| 1778019340 | 24.44° C | 64% | 1005.5 hPa | 0 mm | - | 111 W/m² | - |
| 1778019036 | 25° C | 64% | 1005.4 hPa | 0 mm | - | 136 W/m² | - |
| 1778018733 | 25° C | 63% | 1005.1 hPa | 0 mm | - | 168 W/m² | - |
| 1778018431 | 25° C | 63% | 1005.2 hPa | 0 mm | - | 201 W/m² | - |
| 1778018129 | 25° C | 64% | 1005.3 hPa | 0 mm | - | 288 W/m² | - |
| 1778017827 | 25° C | 62% | 1005.1 hPa | 0 mm | - | 309 W/m² | - |
| 1778017525 | 25.56° C | 63% | 1005.2 hPa | 0 mm | - | 337 W/m² | - |
| 1778017221 | 25.56° C | 63% | 1005.1 hPa | 0 mm | - | 511 W/m² | - |
| 1778016919 | 26.11° C | 64% | 1005 hPa | 0 mm | - | 320 W/m² | - |
| 1778016615 | 26.11° C | 64% | 1005.1 hPa | 0 mm | - | 305 W/m² | - |
| 1778016312 | 26.11° C | 63% | 1005.4 hPa | 0 mm | - | 344 W/m² | - |
| 1778016009 | 26.67° C | 61% | 1005.1 hPa | 0 mm | - | 318 W/m² | - |
| 1778015706 | 27.22° C | 58% | 1005 hPa | 0 mm | - | 361 W/m² | - |
| 1778015402 | 27.22° C | 55% | 1005.1 hPa | 0 mm | - | 814 W/m² | - |
| 1778015099 | 27.78° C | 54% | 1005.2 hPa | 0 mm | - | 712 W/m² | - |
| 1778014796 | 27.78° C | 52% | 1005 hPa | 0 mm | - | 774 W/m² | - |
| 1778014495 | 27.78° C | 53% | 1005.3 hPa | 0 mm | - | 430 W/m² | - |
| 1778014191 | 27.78° C | 50% | 1005.3 hPa | 0 mm | - | 469 W/m² | - |
| 1778013889 | 28.33° C | 49% | 1005.2 hPa | 0 mm | - | 1096 W/m² | - |
| 1778013586 | 27.78° C | 48% | 1005.3 hPa | 0 mm | - | 987 W/m² | - |
| 1778013282 | 27.78° C | 48% | 1005.4 hPa | 0 mm | - | 859 W/m² | - |
| 1778012979 | 27.78° C | 45% | 1005.3 hPa | 0 mm | - | 496 W/m² | - |
* Rain latest hour (hover to see other rain measurements)
** Current wind speed in m/s (hover to see current wind gust speed)